TIAIF MROC-MRAN

Flight info

Callsign TIAIF
Flight time 0h 19m
Altitude 5500
Route CVA NW
Aircraft C182/L-V/N

Departure

Time 2026-04-21 03:47
Airport Juan Santamaría International Airport (MROC)

Arrival

Time 2026-04-21 04:06
Airport La Fortuna Arenal Airport (MRAN)
Time Latitude Longitude Altitude Speed Heading
2026-04-21 03:40 9.99613 -84.21179 3006 ft 0 kts 71°
2026-04-21 03:44 9.99613 -84.21177 3006 ft 3 kts 76°
2026-04-21 03:44 9.99581 -84.21155 3007 ft 14 kts 152°
2026-04-21 03:45 9.99519 -84.21169 3004 ft 1 kts 227°
2026-04-21 03:45 9.99493 -84.21206 3001 ft 15 kts 209°
2026-04-21 03:45 9.99404 -84.21187 3000 ft 5 kts 176°
2026-04-21 03:45 9.99369 -84.21181 2999 ft 8 kts 132°
2026-04-21 03:46 9.99308 -84.21111 3002 ft 18 kts 86°
2026-04-21 03:46 9.99404 -84.20847 3018 ft 61 kts 68°
2026-04-21 03:46 9.99592 -84.20346 3123 ft 84 kts 71°
2026-04-21 03:46 9.99913 -84.19883 3408 ft 80 kts 27°
2026-04-21 03:47 10.00446 -84.19878 3645 ft 84 kts 334°
2026-04-21 03:47 10.01005 -84.20205 3799 ft 97 kts 329°
2026-04-21 03:47 10.01559 -84.20647 3980 ft 107 kts 317°
2026-04-21 03:47 10.02109 -84.21199 4152 ft 115 kts 312°
2026-04-21 03:48 10.02469 -84.21942 4314 ft 124 kts 282°
2026-04-21 03:48 10.02629 -84.22807 4471 ft 124 kts 283°
2026-04-21 03:48 10.02794 -84.23692 4648 ft 129 kts 283°
2026-04-21 03:48 10.02952 -84.24605 4825 ft 130 kts 282°
2026-04-21 03:49 10.03111 -84.25498 4989 ft 128 kts 283°
2026-04-21 03:49 10.03277 -84.26406 5163 ft 130 kts 284°
2026-04-21 03:49 10.03455 -84.27287 5346 ft 129 kts 285°
2026-04-21 03:49 10.03666 -84.28164 5592 ft 126 kts 285°
2026-04-21 03:50 10.03852 -84.29014 5809 ft 121 kts 285°
2026-04-21 03:50 10.04037 -84.29841 6092 ft 120 kts 286°
2026-04-21 03:50 10.04220 -84.30680 6318 ft 119 kts 285°
2026-04-21 03:50 10.04385 -84.31487 6557 ft 118 kts 285°
2026-04-21 03:51 10.04591 -84.32354 6599 ft 137 kts 287°
2026-04-21 03:51 10.04829 -84.33307 6603 ft 145 kts 287°
2026-04-21 03:51 10.05061 -84.34275 6619 ft 142 kts 286°
2026-04-21 03:51 10.05298 -84.35259 6584 ft 147 kts 287°
2026-04-21 03:52 10.05531 -84.36243 6601 ft 142 kts 287°
2026-04-21 03:52 10.05755 -84.37221 6595 ft 142 kts 287°
2026-04-21 03:52 10.05980 -84.38186 6617 ft 140 kts 287°
2026-04-21 03:52 10.06209 -84.39152 6596 ft 141 kts 287°
2026-04-21 03:53 10.06435 -84.40123 6594 ft 141 kts 287°
2026-04-21 03:53 10.06654 -84.41076 6585 ft 136 kts 288°
2026-04-21 03:53 10.06979 -84.41973 6571 ft 136 kts 309°
2026-04-21 03:53 10.07675 -84.42575 6590 ft 131 kts 328°
2026-04-21 03:54 10.08451 -84.43062 6577 ft 131 kts 337°
2026-04-21 03:54 10.09264 -84.43457 6569 ft 127 kts 340°
2026-04-21 03:54 10.10067 -84.43842 6574 ft 128 kts 339°
2026-04-21 03:54 10.10873 -84.44234 6576 ft 129 kts 339°
2026-04-21 03:55 10.11710 -84.44643 6555 ft 133 kts 339°
2026-04-21 03:55 10.12534 -84.45045 6561 ft 131 kts 339°
2026-04-21 03:55 10.13359 -84.45451 6583 ft 134 kts 337°
2026-04-21 03:55 10.14205 -84.45859 6552 ft 135 kts 339°
2026-04-21 03:56 10.15043 -84.46270 6554 ft 134 kts 339°
2026-04-21 03:56 10.15881 -84.46683 6531 ft 135 kts 339°
2026-04-21 03:56 10.16752 -84.47108 6350 ft 142 kts 339°
2026-04-21 03:56 10.17663 -84.47533 6156 ft 145 kts 341°
2026-04-21 03:57 10.18607 -84.47928 5978 ft 151 kts 342°
2026-04-21 03:57 10.19612 -84.48337 5765 ft 159 kts 342°
2026-04-21 03:57 10.20601 -84.48755 5568 ft 150 kts 341°
2026-04-21 03:57 10.21534 -84.49161 5372 ft 143 kts 341°
2026-04-21 03:58 10.22445 -84.49551 5178 ft 142 kts 341°
2026-04-21 03:58 10.23358 -84.49940 4980 ft 142 kts 341°
2026-04-21 03:58 10.24262 -84.50337 4784 ft 140 kts 341°
2026-04-21 03:58 10.25156 -84.50731 4589 ft 141 kts 341°
2026-04-21 03:59 10.26047 -84.51117 4395 ft 138 kts 341°
2026-04-21 03:59 10.26942 -84.51501 4202 ft 142 kts 340°
2026-04-21 03:59 10.27852 -84.51935 4005 ft 144 kts 341°
2026-04-21 04:00 10.29614 -84.52895 3622 ft 146 kts 335°
2026-04-21 04:00 10.30504 -84.53380 3423 ft 144 kts 335°
2026-04-21 04:00 10.31383 -84.53861 3224 ft 143 kts 335°
2026-04-21 04:00 10.32255 -84.54345 3031 ft 142 kts 335°
2026-04-21 04:01 10.33116 -84.54827 2829 ft 141 kts 334°
2026-04-21 04:01 10.33970 -84.55302 2641 ft 140 kts 335°
2026-04-21 04:01 10.34818 -84.55782 2448 ft 139 kts 334°
2026-04-21 04:01 10.35665 -84.56257 2250 ft 139 kts 335°
2026-04-21 04:02 10.36505 -84.56732 2058 ft 137 kts 334°
2026-04-21 04:02 10.37303 -84.57192 2034 ft 127 kts 334°
2026-04-21 04:02 10.38084 -84.57640 1882 ft 130 kts 334°
2026-04-21 04:02 10.38880 -84.58083 1727 ft 131 kts 334°
2026-04-21 04:03 10.39691 -84.58532 1578 ft 133 kts 335°
2026-04-21 04:03 10.40537 -84.58917 1428 ft 133 kts 340°
2026-04-21 04:03 10.41395 -84.59236 1318 ft 126 kts 343°
2026-04-21 04:03 10.42203 -84.59474 1320 ft 117 kts 348°
2026-04-21 04:04 10.42981 -84.59678 1322 ft 115 kts 347°
2026-04-21 04:04 10.43732 -84.59870 1326 ft 105 kts 348°
2026-04-21 04:04 10.44391 -84.60058 1325 ft 91 kts 347°
2026-04-21 04:04 10.44986 -84.60088 1203 ft 88 kts 15°
2026-04-21 04:05 10.45531 -84.59827 1040 ft 85 kts 32°
2026-04-21 04:05 10.46002 -84.59462 821 ft 85 kts 42°
2026-04-21 04:05 10.46328 -84.59051 643 ft 72 kts 57°
2026-04-21 04:05 10.46558 -84.58629 529 ft 67 kts 61°
2026-04-21 04:06 10.46772 -84.58215 382 ft 60 kts 63°
2026-04-21 04:06 10.46935 -84.57901 365 ft 44 kts 62°
2026-04-21 04:06 10.47062 -84.57658 365 ft 23 kts 59°
2026-04-21 04:06 10.47095 -84.57587 360 ft 7 kts 89°
2026-04-21 04:07 10.47087 -84.57569 362 ft 5 kts 78°
2026-04-21 04:07 10.47092 -84.57569 358 ft 0 kts 321°